SHENZHOU-12 (48852 NORAD) Tracking and Keplerian Element Data

This shows tracking and keplerian element data for the satellite.

Feedback or suggestion? Click here.




ElementValue
Catalog48852
NameSHENZHOU-12
Epoch Orbit1493
Epoch Day214.45930733
Epoch Year2021
RAAN0.7782
Inclination41.471
Eccentricity0.0009306
Argument of Perigee286.6034
Mean Anonmoly175.3502
Mean Motion15.62813859
Decay Rate7.611E-05
L11 48852U 21053A 21214.45930733 .00007611 00000-0 85624-4 0 9996
L22 48852 41.4710 0.7782 0009306 286.6034 175.3502 15.62813859 14935

Live tracking and technical data element details for SHENZHOU-12 (NORAD 48852). SHENZHOU-12 can be tracked NOW for your location showing map with azimuth and elevation plus other details from your city location.

Track the satellite on the map from your city or location and see movement details for azimuth, elevation, latitude, longitude, range, height, and movement on the map or in text.







IsCatalogInMostPopularTable: catalog: 48852, numindb: 14
Update: records affected: 1



GetName: 48852 SHENZHOU-12

Hit Count: updated at: Tue, 03 Aug 2021 20:29:33 GMT